This is the latest recevied weather packets stored in our database for station/object K7CTM. If no packets are shown the sender has not sent any weather packets the latest 10 day(s).
| Time | Temp. | Humidity | Pressure | Rain* | Wind** | Luminosity | Snow |
|---|---|---|---|---|---|---|---|
| 1787879704 | 24.44° C | 49% | 1026.1 hPa | 0 mm | - | 36 W/m² | - |
| 1787879399 | 24.44° C | 48% | 1026.1 hPa | 0 mm | - | 41 W/m² | - |
| 1787879095 | 24.44° C | 48% | 1026.1 hPa | 0 mm | - | 44 W/m² | - |
| 1787878790 | 24.44° C | 48% | 1026.1 hPa | 0 mm | - | 46 W/m² | - |
| 1787878489 | 24.44° C | 49% | 1026.1 hPa | 0 mm | - | 51 W/m² | - |
| 1787878186 | 25° C | 47% | 1025.8 hPa | 0 mm | - | 58 W/m² | - |
| 1787877881 | 25.56° C | 46% | 1026.1 hPa | 0 mm | - | 65 W/m² | - |
| 1787877576 | 25.56° C | 43% | 1026.1 hPa | 0 mm | - | 73 W/m² | - |
| 1787877272 | 26.11° C | 42% | 1025.8 hPa | 0 mm | - | 116 W/m² | - |
| 1787876971 | 26.11° C | 41% | 1025.7 hPa | 0 mm | - | 127 W/m² | - |
| 1787876668 | 26.67° C | 40% | 1025.8 hPa | 0 mm | - | 124 W/m² | - |
| 1787876362 | 26.67° C | 39% | 1026 hPa | 0 mm | - | 130 W/m² | - |
| 1787876060 | 26.67° C | 38% | 1026 hPa | 0 mm | - | 126 W/m² | - |
| 1787875757 | 26.67° C | 37% | 1026.1 hPa | 0 mm | - | 153 W/m² | - |
| 1787875455 | 27.22° C | 36% | 1026.2 hPa | 0 mm | - | 193 W/m² | - |
| 1787875154 | 27.78° C | 35% | 1026.2 hPa | 0 mm | - | 211 W/m² | - |
| 1787874849 | 27.78° C | 35% | 1026.2 hPa | 0 mm | - | 230 W/m² | - |
| 1787874548 | 28.33° C | 33% | 1026.3 hPa | 0 mm | - | 187 W/m² | - |
| 1787874243 | 28.33° C | 33% | 1026.1 hPa | 0 mm | - | 322 W/m² | - |
| 1787873938 | 27.22° C | 33% | 1026.4 hPa | 0 mm | - | 295 W/m² | - |
| 1787873637 | 25.56° C | 36% | 1026.8 hPa | 0 mm | - | 171 W/m² | - |
| 1787873332 | 25.56° C | 38% | 1027.3 hPa | 0 mm | - | 65 W/m² | - |
| 1787873031 | 25° C | 43% | 1027.3 hPa | 0 mm | - | 65 W/m² | - |
| 1787872726 | 25° C | 44% | 1027.1 hPa | 0 mm | - | 88 W/m² | - |
| 1787872423 | 25° C | 44% | 1026.9 hPa | 0 mm | - | 114 W/m² | - |
* Rain latest hour (hover to see other rain measurements)
** Current wind speed in m/s (hover to see current wind gust speed)